Theta_e
306 306 308 307 312 318 323 323 324 325 325 324 323 323 325 325 325 325 324 323 324 324 323 324 322 320 317
302 303 304 306 307 310 315 321 323 325 325 324 324 324 324 324 324 324 323 323 323 323 323 324 322 318 315
298 299 302 303 305 308 309 311 314 316 320 322 323 322 323 323 323 322 322 322 322 322 323 324 322 318 315
296 297 298 299 301 304 305 306 307 309 311 313 316 317 319 320 321 321 321 321 321 321 323 323 321 316 313
294 295 295 297 296 297 298 299 301 308 310 311 312 312 314 316 316 317 317 318 319 320 322 322 319 314 312
292 292 292 292 293 294 295 296 299 304 301 303 306 308 310 312 313 314 315 316 317 318 321 318 314 312 310
289 288 289 289 290 291 292 293 294 296 296 299 302 305 308 310 311 313 314 316 317 316 314 315 313 310 308
288 288 288 289 289 289 290 290 292 293 294 299 302 304 306 308 309 311 313 314 312 313 315 314 312 309 308
289 289 288 288 288 289 289 290 291 291 293 296 299 302 305 307 308 310 311 312 314 315 314 311 310 309 307
288 286 286 287 287 288 289 290 290 291 294 294 298 299 300 304 306 308 308 308 311 313 311 311 308 304 303
286 286 286 286 286 286 287 288 287 288 289 291 293 293 297 299 301 305 305 306 306 307 309 308 305 305 303
286 286 286 286 286 286 285 285 286 286 286 287 289 292 293 294 296 300 303 304 304 304 303 302 303 303 302
286 286 285 285 286 285 284 284 285 286 286 287 288 290 292 293 295 297 300 301 303 302 301 301 299 299 298
285 285 285 285 285 285 284 284 285 286 287 287 288 289 290 291 293 296 298 300 300 300 300 300 299 298 299
285 284 284 284 284 284 283 283 284 286 287 287 287 289 290 291 292 294 297 298 299 299 298 297 296 297 297
284 284 282 282 283 282 283 283 283 284 285 287 288 289 289 290 291 292 295 297 297 298 296 296 294 294 295
283 282 281 282 282 282 282 282 283 284 285 286 288 289 290 290 292 293 293 295 295 295 295 295 294 292 294
Wind_Speed
18 24 24 28 28 22 29 39 41 42 43 42 45 40 37 38 42 39 35 34 30 31 28 29 39 35 31
17 18 23 23 26 24 18 28 34 33 36 35 34 34 35 35 32 34 33 32 31 32 32 35 39 38 32
15 19 21 21 25 21 20 20 17 19 23 31 36 32 32 30 32 31 35 36 35 35 35 43 44 41 32
14 15 18 21 19 20 22 21 26 24 19 19 19 26 28 31 36 40 42 42 40 36 40 46 48 42 32
12 12 13 16 17 19 20 25 27 18 19 18 17 18 22 26 32 36 38 38 39 38 44 48 50 40 31
10 10 12 16 18 20 19 18 5 10 24 23 22 25 23 22 24 27 31 34 38 42 50 54 44 34 28
14 15 17 20 20 19 18 18 20 24 26 25 24 26 28 26 26 25 24 25 32 43 48 43 34 31 26
15 18 19 23 23 22 23 24 23 24 23 15 21 24 28 28 25 26 25 26 36 43 36 34 32 29 25
15 16 19 19 19 20 20 17 13 18 22 20 16 23 25 29 26 24 25 27 31 33 35 33 30 26 26
17 24 21 22 18 16 19 14 15 10 7 12 15 13 7 14 23 26 28 32 35 38 38 33 30 30 30
18 21 22 23 22 21 19 20 18 18 19 22 18 21 13 12 17 18 25 30 34 38 38 35 35 35 33
16 20 23 24 23 23 26 27 26 26 27 25 17 19 20 18 10 19 25 29 32 35 37 37 36 34 31
17 19 23 24 24 23 27 27 26 23 21 25 29 26 25 23 20 19 19 23 32 34 36 38 37 37 31
18 21 23 23 23 22 23 26 23 26 24 21 26 31 28 27 26 25 26 16 25 32 36 36 37 40 40
19 21 18 20 19 20 23 22 21 21 23 25 24 30 33 31 25 26 27 26 25 29 31 27 32 39 41
19 18 20 20 21 21 20 21 21 21 21 26 23 22 22 26 35 27 25 28 26 31 30 26 25 31 37
21 23 22 21 20 20 19 20 21 22 23 25 23 19 10 11 18 22 28 24 25 25 31 28 24 32 40
Wind_Direction
310 316 321 332 329 321 279 261 253 246 252 255 250 251 252 247 246 236 236 243 243 243 247 234 217 218 214
317 331 328 334 328 330 333 280 263 258 253 249 245 246 249 253 240 243 254 250 249 243 249 234 221 212 211
321 327 329 342 336 338 339 341 333 299 266 262 249 249 251 245 248 247 257 259 257 256 241 227 216 213 211
317 321 331 337 339 344 344 348 330 325 318 298 284 267 263 260 261 260 258 255 254 252 234 225 215 208 205
324 327 336 347 348 336 337 337 332 334 328 319 323 302 281 273 270 266 261 255 249 240 230 222 211 199 204
336 340 332 334 336 331 326 328 324 312 340 319 320 308 300 295 281 275 270 259 248 237 220 208 196 200 203
318 319 317 321 321 318 313 309 299 301 311 301 303 293 298 299 290 282 275 261 245 221 203 198 200 200 203
308 312 315 313 310 308 304 298 293 300 299 285 293 289 298 296 291 273 272 251 212 203 203 205 202 205 208
306 305 306 307 309 314 313 308 304 304 303 289 291 296 283 285 284 268 247 228 217 218 212 205 206 210 214
310 317 317 319 320 314 313 303 303 301 312 350 314 295 281 280 272 262 249 244 244 232 217 213 211 206 207
310 313 313 317 318 321 315 304 303 289 293 300 299 307 283 299 297 269 237 229 221 222 224 218 214 215 210
301 299 305 310 313 311 315 308 300 289 290 283 275 275 281 295 285 274 251 229 221 212 210 212 220 220 220
287 291 299 304 305 298 313 312 304 298 288 286 271 271 265 264 269 267 255 236 220 209 206 204 198 209 204
296 303 307 306 299 298 302 303 295 291 290 290 283 268 262 257 256 259 250 218 219 208 206 204 203 207 210
304 304 300 302 292 300 299 296 289 281 293 295 287 278 262 254 253 253 247 236 227 207 197 197 200 203 209
298 296 297 295 293 299 295 290 285 287 285 288 282 275 260 258 253 252 249 232 221 208 201 197 197 199 204
297 295 297 290 290 289 289 286 284 284 283 289 275 261 256 259 258 246 231 221 206 201 198 199 198 198 202